Lambertville, MI

2:16 AM EDT on July 28, 2016 (GMT -0400)
Toledo Suburban Airport

Weather History for KDUH - June, 2013

Change the Weather History Date:

Friday, June 28, 2013

  Actual Average (KTOL) Record (KTOL)
Temperature  
Mean Temperature 70 °F 73 °F  
Max Temperature 80 °F 84 °F 103 °F (2012)
Min Temperature 60 °F 62 °F 47 °F (1970)
Degree Days  
Heating Degree Days 0 0  
Month to date heating degree days 35  
Since 1 June heating degree days 35  
Since 1 July heating degree days 6145  
Cooling Degree Days 5 8  
Month to date cooling degree days 154  
Year to date cooling degree days 207  
Since 1 June cooling degree days 154  
Growing Degree Days 20 (Base 50)    
Moisture  
Dew Point 62 °F    
Average Humidity 82    
Maximum Humidity 94    
Minimum Humidity 48    
Precipitation  
Precipitation 0.00 in 0.11 in 1.29 in (1973)
Month to date precipitation 3.35  
Year to date precipitation 16.72  
Snow  
Snow 0.00 in 0.00 in - ()
Month to date snowfall 0.0  
Since 1 June snowfall 0.0  
Since 1 July snowfall 37.6  
Snow Depth -    
Sea Level Pressure  
Sea Level Pressure 29.60 in    
Wind  
Wind Speed 4 mph (WNW)    
Max Wind Speed 16 mph    
Max Gust Speed 28 mph    
Visibility 8 miles    
Events Fog , Rain    
T = Trace of Precipitation, MM = Missing Value Source: NWS Daily Summary

Daily Weather History Graph

Daily Weather History Graph

Search for Another Location

Airport or City:

Trip Planner

Search our weather history database for the weather conditions in past years. The results will help you decide how hot, cold, wet, or windy it might be!

Date:

Astronomy

Jun. 28, 2013 Rise Set
Actual Time 6:02 AM EDT 9:13 PM EDT
Civil Twilight 5:28 AM EDT 9:47 PM EDT
Nautical Twilight 4:44 AM EDT 10:31 PM EDT
Astronomical Twilight 3:51 AM EDT 11:23 PM EDT
Moon 12:04 AM EDT 12:14 PM EDT
Length of Visible Light 16h 19m
Length of Day
15h 10m
Waning Gibbous, 66% of the Moon is Illuminated
Jun 28
Waning Gibbous
Jun 30
Last Quarter
Jul 8
New
Jul 15
First Quarter
Jul 22
Full

Hourly Weather History & Observations

Time (EDT) Temp. Heat Index Dew Point Humidity Pressure Visibility Wind Dir Wind Speed Gust Speed Precip Events Conditions
12:15 AM 66.2 °F - 62.6 °F 88% 29.65 in 7.0 mi West 3.5 mph - N/A   Clear
12:35 AM 66.2 °F - 64.4 °F 94% 29.64 in 7.0 mi West 3.5 mph - N/A   Clear
12:55 AM 66.2 °F - 62.6 °F 88% 29.64 in 7.0 mi West 4.6 mph - N/A   Clear
1:15 AM 66.2 °F - 64.4 °F 94% 29.63 in 7.0 mi WSW 5.8 mph - N/A   Scattered Clouds
1:35 AM 68.0 °F - 64.4 °F 88% 29.63 in 7.0 mi Calm Calm - N/A   Scattered Clouds
1:55 AM 66.2 °F - 64.4 °F 94% 29.63 in 7.0 mi WNW 3.5 mph - N/A   Clear
2:35 AM 66.2 °F - 64.4 °F 94% 29.65 in 5.0 mi NE 3.5 mph - N/A   Mostly Cloudy
2:55 AM 66.2 °F - 64.4 °F 94% 29.65 in 5.0 mi NE 3.5 mph - N/A   Overcast
3:15 AM 66.2 °F - 64.4 °F 94% 29.65 in 7.0 mi NNE 3.5 mph - N/A   Overcast
3:35 AM 66.2 °F - 62.6 °F 88% 29.65 in 5.0 mi Calm Calm - N/A   Overcast
3:55 AM 66.2 °F - 62.6 °F 88% 29.65 in 7.0 mi Calm Calm - N/A   Overcast
4:15 AM 66.2 °F - 62.6 °F 88% 29.64 in 7.0 mi Calm Calm - N/A   Mostly Cloudy
4:35 AM 64.4 °F - 62.6 °F 94% 29.63 in 5.0 mi Calm Calm - N/A   Mostly Cloudy
4:55 AM 64.4 °F - 62.6 °F 94% 29.63 in 5.0 mi Calm Calm - N/A   Scattered Clouds
5:15 AM 64.4 °F - 62.6 °F 94% 29.62 in 3.0 mi Calm Calm - N/A   Clear
5:35 AM 64.4 °F - 62.6 °F 94% 29.62 in 4.0 mi Calm Calm - N/A   Clear
5:55 AM 64.4 °F - 62.6 °F 94% 29.62 in 3.0 mi Calm Calm - N/A   Clear
6:15 AM 64.4 °F - 62.6 °F 94% 29.62 in 2.0 mi Calm Calm - N/A   Clear
6:35 AM 64.4 °F - 62.6 °F 94% 29.62 in 2.0 mi Calm Calm - N/A   Mostly Cloudy
6:55 AM 64.4 °F - 62.6 °F 94% 29.62 in 2.0 mi Calm Calm - N/A   Scattered Clouds
7:15 AM 64.4 °F - 62.6 °F 94% 29.62 in 0.5 mi Calm Calm - N/A Fog Fog
7:35 AM 64.4 °F - 62.6 °F 94% 29.62 in 0.8 mi West 4.6 mph - N/A   Overcast
7:55 AM 66.2 °F - 62.6 °F 88% 29.62 in 3.0 mi West 3.5 mph - N/A   Overcast
8:15 AM 66.2 °F - 64.4 °F 94% 29.62 in 4.0 mi WNW 3.5 mph - N/A   Overcast
8:35 AM 68.0 °F - 64.4 °F 88% 29.62 in 5.0 mi WNW 3.5 mph - N/A   Overcast
8:55 AM 69.8 °F - 64.4 °F 83% 29.62 in 7.0 mi West 5.8 mph - N/A   Overcast
9:15 AM 68.0 °F - 64.4 °F 88% 29.62 in 10.0 mi NW 4.6 mph - N/A   Overcast
9:35 AM 68.0 °F - 64.4 °F 88% 29.62 in 10.0 mi NNW 3.5 mph - N/A   Mostly Cloudy
9:55 AM 71.6 °F - 64.4 °F 78% 29.61 in 10.0 mi NNW 3.5 mph - N/A   Mostly Cloudy
10:15 AM 69.8 °F - 64.4 °F 83% 29.61 in 10.0 mi West 4.6 mph - N/A   Scattered Clouds
10:35 AM 71.6 °F - 64.4 °F 78% 29.60 in 10.0 mi West 5.8 mph - N/A   Scattered Clouds
10:55 AM 73.4 °F - 64.4 °F 73% 29.60 in 10.0 mi NNW 6.9 mph - N/A   Scattered Clouds
11:15 AM 73.4 °F - 64.4 °F 73% 29.60 in 10.0 mi WNW 6.9 mph - N/A   Scattered Clouds
11:35 AM 77.0 °F - 64.4 °F 65% 29.60 in 10.0 mi WNW 4.6 mph - N/A   Scattered Clouds
11:55 AM 77.0 °F - 64.4 °F 65% 29.60 in 10.0 mi West 6.9 mph - N/A   Scattered Clouds
12:15 PM 78.8 °F - 64.4 °F 61% 29.59 in 10.0 mi West 8.1 mph - N/A   Scattered Clouds
12:35 PM 78.8 °F - 62.6 °F 57% 29.58 in 10.0 mi West 10.4 mph 19.6 mph N/A   Mostly Cloudy
12:55 PM 78.8 °F - 62.6 °F 57% 29.57 in 10.0 mi West 8.1 mph - N/A   Mostly Cloudy
1:15 PM 78.8 °F - 62.6 °F 57% 29.57 in 10.0 mi West 9.2 mph - N/A   Mostly Cloudy
1:35 PM 78.8 °F - 60.8 °F 54% 29.56 in 10.0 mi West 11.5 mph 18.4 mph N/A   Scattered Clouds
1:55 PM 80.6 °F 81.5 °F 60.8 °F 51% 29.56 in 10.0 mi WNW 11.5 mph 18.4 mph N/A   Scattered Clouds
2:15 PM 80.6 °F 81.1 °F 59.0 °F 48% 29.56 in 10.0 mi WNW 10.4 mph 21.9 mph N/A   Mostly Cloudy
2:35 PM 75.2 °F - 60.8 °F 61% 29.57 in 10.0 mi North 10.4 mph 20.7 mph N/A   Mostly Cloudy
2:55 PM 77.0 °F - 60.8 °F 57% 29.57 in 10.0 mi NNW 10.4 mph - N/A   Scattered Clouds
3:15 PM 77.0 °F - 60.8 °F 57% 29.56 in 10.0 mi North 8.1 mph - N/A   Scattered Clouds
3:35 PM 77.0 °F - 62.6 °F 61% 29.55 in 10.0 mi NNE 6.9 mph - N/A   Scattered Clouds
3:55 PM 77.0 °F - 62.6 °F 61% 29.55 in 10.0 mi NNE 4.6 mph - N/A   Clear
4:15 PM 73.4 °F - 62.6 °F 69% 29.55 in 10.0 mi ENE 3.5 mph - N/A   Scattered Clouds
4:35 PM 71.6 °F - 60.8 °F 69% 29.56 in 10.0 mi SSW 4.6 mph - N/A Rain Light Rain
4:55 PM 69.8 °F - 60.8 °F 73% 29.55 in 10.0 mi WSW 4.6 mph - N/A   Scattered Clouds
5:15 PM 69.8 °F - 60.8 °F 73% 29.57 in 10.0 mi West 13.8 mph 20.7 mph N/A   Light Drizzle
5:35 PM 66.2 °F - 59.0 °F 78% 29.61 in 7.0 mi WNW 16.1 mph 27.6 mph N/A Rain Heavy Rain
5:55 PM 60.8 °F - 55.4 °F 82% 29.59 in 2.0 mi North 9.2 mph 17.3 mph N/A Rain Heavy Rain
6:15 PM 60.8 °F - 55.4 °F 82% 29.58 in 10.0 mi WNW 4.6 mph - N/A Rain Light Rain
6:35 PM 62.6 °F - 57.2 °F 82% 29.60 in 5.0 mi North 3.5 mph - N/A Rain Heavy Rain
6:55 PM 62.6 °F - 59.0 °F 88% 29.61 in 7.0 mi North 3.5 mph - N/A Rain Rain
7:15 PM 62.6 °F - 59.0 °F 88% 29.60 in 10.0 mi Calm Calm - N/A Rain Light Rain
7:35 PM 62.6 °F - 59.0 °F 88% 29.59 in 10.0 mi Calm Calm - N/A Rain Light Rain
7:55 PM 62.6 °F - 60.8 °F 94% 29.60 in 10.0 mi Calm Calm - N/A   Mostly Cloudy
8:15 PM 64.4 °F - 60.8 °F 88% 29.60 in 10.0 mi West 4.6 mph - N/A   Mostly Cloudy
8:35 PM 64.4 °F - 60.8 °F 88% 29.59 in 10.0 mi West 3.5 mph - N/A Rain Light Rain
8:55 PM 64.4 °F - 60.8 °F 88% 29.59 in 10.0 mi Calm Calm - N/A Rain Light Rain
9:15 PM 64.4 °F - 60.8 °F 88% 29.59 in 10.0 mi WNW 3.5 mph - N/A   Overcast
9:35 PM 64.4 °F - 60.8 °F 88% 29.58 in 10.0 mi Calm Calm - N/A Rain Light Rain
9:55 PM 64.4 °F - 60.8 °F 88% 29.59 in 10.0 mi West 3.5 mph - N/A Rain Rain
10:15 PM 64.4 °F - 60.8 °F 88% 29.59 in 10.0 mi West 4.6 mph - N/A Rain Light Rain
10:35 PM 64.4 °F - 60.8 °F 88% 29.59 in 10.0 mi West 4.6 mph - N/A   Overcast
10:55 PM 64.4 °F - 60.8 °F 88% 29.59 in 10.0 mi Calm Calm - N/A   Overcast
11:15 PM 62.6 °F - 60.8 °F 94% 29.59 in 10.0 mi Calm Calm - N/A   Mostly Cloudy
11:35 PM 62.6 °F - 60.8 °F 94% 29.58 in 10.0 mi Calm Calm - N/A   Scattered Clouds
11:55 PM 62.6 °F - 60.8 °F 94% 29.58 in 10.0 mi West 3.5 mph - N/A   Mostly Cloudy